SCP
0 0 0 0 0 0 0 0 0 0 0 0 0 0 0 0 0 0 0 0 0 0 0 0 0 0 0 0 0 0 0 0 0 0 0 0 0 0 0 0 0 0 0 0
0 0 0 0 0 0 0 0 0 0 0 0 0 0 0 0 0 0 0 0 0 0 0 0 0 0 0 0 0 0 0 0 0 0 0 0 0 0 0 0 0 0 0 0
0 0 0 0 0 0 0 0 0 0 0 0 0 0 0 0 0 0 0 0 0 0 0 0 0 0 0 0 0 0 0 0 0 0 0 0 0 0 0 0 0 0 0 0
0 0 0 0 0 0 0 0 0 0 0 0 0 0 0 0 0 0 0 0 0 0 0 0 0 0 1 1 0 0 0 0 0 0 0 0 0 0 0 0 0 0 0 0
0 0 0 0 0 0 0 0 0 0 0 0 0 0 0 0 0 0 0 0 0 0 0 0 0 0 1 1 1 0 0 0 0 0 0 0 0 0 0 0 0 0 0 0
0 0 0 0 0 0 0 0 0 0 0 0 0 0 0 0 0 0 0 0 0 0 0 0 0 0 1 1 1 1 0 0 0 0 0 0 0 0 0 0 0 0 0 0
0 0 0 0 0 0 0 0 0 0 0 0 0 0 0 0 0 0 0 0 0 0 0 0 0 0 1 1 1 1 1 0 0 0 0 0 0 0 0 0 0 0 0 0
0 0 0 0 0 0 0 0 0 0 0 0 0 0 0 0 0 0 0 0 0 0 0 0 0 1 1 1 1 1 1 1 1 1 0 0 0 0 0 0 0 0 0 0
0 0 0 0 0 0 0 0 0 0 0 0 0 0 0 0 0 0 0 0 0 0 0 0 0 1 1 1 1 1 1 1 1 1 1 0 0 0 0 0 0 0 0 0
0 0 0 0 0 0 0 0 0 0 0 0 0 0 0 0 0 0 0 0 0 0 0 0 0 1 1 1 1 1 1 1 1 1 1 0 0 0 0 0 0 0 0 0
0 0 0 0 0 0 0 0 -0 0 0 0 0 0 0 0 0 0 0 0 0 0 0 0 0 1 1 1 1 1 1 1 1 1 0 0 0 0 0 0 0 0 0 0
0 0 0 0 0 0 0 0 -0 -0 0 0 0 0 0 0 0 0 0 0 0 0 0 1 1 1 1 1 1 1 1 1 1 1 0 0 0 0 0 0 0 0 0 0
0 0 0 0 0 0 -0 -0 -0 0 0 0 0 0 0 0 0 0 0 0 0 0 1 1 1 1 1 1 1 1 1 1 1 1 0 0 0 0 0 0 0 0 0 0
0 0 -0 -0 -0 0 0 0 0 0 0 0 0 0 0 0 0 0 1 1 0 1 1 1 1 1 1 1 1 1 0 0 1 1 1 0 0 0 0 0 0 0 0 0
0 0 0 -0 0 0 0 0 0 0 0 0 0 0 0 0 0 1 1 1 1 1 1 1 1 1 1 0 0 0 0 0 0 1 1 0 0 1 0 0 0 0 0 0
0 0 0 0 0 0 0 0 0 0 0 0 0 0 0 0 1 1 1 1 1 1 1 1 1 1 1 0 0 0 0 0 0 0 0 0 1 1 1 0 0 0 0 0
0 0 0 0 0 0 0 0 0 0 0 0 0 0 0 0 1 1 1 1 1 1 1 1 1 1 1 0 0 0 0 1 0 0 0 0 1 1 1 0 0 0 0 0
0 0 0 0 0 0 0 0 0 0 0 0 0 0 0 1 1 1 1 1 1 1 1 1 1 1 0 0 0 1 1 1 1 1 1 1 1 1 1 0 0 0 0 0
0 0 0 0 0 0 0 0 0 0 0 0 0 0 1 1 1 1 1 1 1 1 1 1 1 1 1 0 0 1 1 1 1 1 1 1 1 0 0 0 0 0 0 0
0 0 0 0 0 0 0 0 0 0 0 0 0 1 1 1 1 1 1 1 1 1 1 1 1 1 1 0 0 0 0 0 0 0 0 0 0 0 0 0 0 0 0 0
0 0 0 0 0 0 0 0 0 0 0 0 1 1 1 1 1 1 1 1 1 1 1 1 1 1 1 0 0 0 0 0 0 0 0 0 0 0 0 0 0 0 0 0
0 0 0 0 0 0 0 0 0 0 0 0 1 1 1 1 1 1 1 1 1 1 1 1 1 1 0 0 0 0 0 0 0 0 0 0 0 0 0 0 0 0 0 0
0 0 0 0 0 0 0 0 0 0 0 1 1 1 1 1 1 1 1 1 1 1 1 1 1 0 0 0 0 0 0 0 0 0 0 0 0 0 0 0 0 0 0 0
0 0 0 0 0 0 0 0 0 0 1 1 1 1 1 1 1 1 1 1 1 1 1 1 0 0 0 0 0 0 0 0 0 0 0 0 0 0 0 0 0 0 0 0
0 0 0 0 0 0 0 0 0 0 1 1 1 1 1 1 1 1 1 1 1 1 1 0 0 0 0 0 0 0 0 0 0 0 0 0 0 0 0 0 0 0 0 0
0 0 0 0 0 0 0 0 0 0 1 1 1 1 1 1 1 1 1 1 1 1 1 0 0 0 0 0 0 0 0 0 0 0 0 0 0 0 0 0 0 0 0 0
Wind_Speed
3 5 3 5 5 5 5 4 2 3 2 3 3 4 4 7 7 8 8 7 8 8 6 6 7 7 7 6 6 7 6 6 5 3 3 2 2 1 1 2 3 3 3 3
5 2 4 4 4 4 4 3 1 1 1 2 2 2 2 6 9 8 9 9 9 7 5 7 7 7 8 8 8 7 7 7 6 4 3 2 2 2 2 1 2 3 3 3
6 4 4 5 4 4 2 4 4 2 2 3 3 3 2 3 4 5 6 7 8 10 9 8 8 8 8 9 10 9 8 7 6 5 3 2 2 1 0 1 1 2 3 4
3 3 3 4 4 6 3 4 5 4 3 1 2 1 6 3 4 7 8 8 9 9 9 8 9 9 9 10 9 8 8 7 6 6 5 5 4 3 3 2 2 2 2 3
5 3 4 5 6 7 5 2 4 3 4 2 2 2 7 1 5 10 11 11 10 10 10 10 11 11 9 8 8 7 6 6 6 6 6 5 4 3 2 1 2 2 2 2
4 3 4 6 4 6 5 6 7 6 6 1 2 3 7 5 9 8 8 10 10 10 10 10 8 7 7 7 6 6 6 6 6 6 6 6 6 5 3 3 3 2 1 2
1 2 2 3 4 3 5 7 5 4 3 5 2 3 9 8 7 9 9 8 9 9 9 9 9 9 9 9 8 7 7 6 5 6 6 6 6 5 5 4 4 3 2 2
5 4 5 5 6 7 6 10 9 6 6 4 1 5 9 6 5 5 5 5 6 7 8 9 10 10 9 9 8 7 7 7 6 6 6 5 5 4 3 4 3 3 3 3
7 6 4 4 5 11 7 4 7 8 3 1 4 6 9 3 3 2 1 3 6 7 8 8 8 8 9 9 9 9 8 6 6 6 5 4 4 4 3 3 3 2 2 2
8 4 3 1 5 4 7 10 7 7 7 2 3 4 5 5 4 3 2 3 5 5 5 6 7 8 7 7 7 7 7 7 6 5 5 4 3 3 3 3 2 2 2 1
5 4 2 1 5 8 5 5 6 6 6 8 3 7 7 7 5 4 3 3 4 5 5 5 5 6 6 6 5 5 5 5 5 4 4 4 3 3 3 2 2 2 1 1
5 6 1 4 3 4 6 9 9 7 4 4 5 8 5 4 4 3 2 2 3 5 5 5 6 6 6 6 5 5 5 5 5 4 4 3 3 3 3 2 2 2 1 1
8 7 3 3 3 1 4 4 5 7 7 5 5 7 3 0 1 2 3 3 4 5 6 5 5 5 5 5 4 4 4 4 4 4 4 3 2 2 2 2 2 2 2 1
8 6 7 9 8 5 5 4 5 7 6 5 7 6 4 3 3 3 3 4 4 5 6 6 5 4 4 4 4 3 3 4 5 5 4 4 3 2 2 2 2 2 2 2
6 5 4 4 3 4 4 6 7 6 9 9 9 8 8 7 5 4 5 6 6 6 6 6 5 5 5 5 4 3 3 3 4 5 4 3 3 3 3 3 3 3 3 3
4 6 4 1 1 3 2 3 6 5 5 5 4 6 5 3 4 5 6 7 7 6 6 6 6 6 6 6 5 4 4 4 5 5 4 4 4 4 3 3 4 4 4 4
4 6 5 2 1 3 1 3 5 4 4 8 8 8 4 5 7 8 8 8 7 7 7 7 6 5 5 5 5 6 5 5 6 6 5 5 5 5 4 5 5 5 5 5
7 6 5 3 3 3 6 2 3 4 2 3 4 4 7 6 5 4 5 7 7 7 7 7 6 6 5 5 6 6 7 7 7 6 6 5 5 6 5 6 5 5 5 5
5 9 6 5 4 2 2 0 2 3 1 2 4 4 6 9 7 3 2 5 6 7 7 6 6 7 7 7 7 8 7 7 7 6 6 5 6 7 7 6 6 5 6 6
5 6 7 5 5 5 5 2 1 4 1 2 4 7 8 8 5 4 5 6 7 7 7 7 7 8 8 6 7 8 8 7 6 6 6 6 6 7 7 7 6 5 6 6
5 5 5 4 3 4 4 4 1 4 6 2 4 7 8 5 4 6 8 8 8 8 8 8 8 7 6 6 8 9 8 6 5 6 7 7 7 7 7 6 6 6 6 6
4 5 4 4 3 5 3 1 4 5 2 2 4 5 6 6 8 9 9 9 9 9 9 8 8 7 5 6 8 9 7 6 6 7 8 7 7 6 6 7 6 6 6 7
2 4 5 5 5 4 3 2 2 1 1 1 4 6 9 9 9 9 9 9 9 9 8 8 9 8 6 5 7 9 6 7 8 8 8 7 7 7 6 6 6 5 5 5
1 1 3 2 1 2 2 2 2 1 1 2 5 7 9 10 9 9 9 9 8 8 8 8 9 8 6 5 6 7 7 7 9 9 7 7 7 7 7 5 5 5 4 4
1 1 3 1 1 2 3 2 3 4 5 6 6 6 8 10 9 9 9 9 8 7 7 7 8 8 7 6 6 6 6 8 9 8 7 7 7 7 7 7 6 5 5 3
2 3 4 4 5 3 2 2 1 5 5 6 7 7 6 8 8 9 8 7 7 7 7 7 7 7 7 7 6 5 5 7 9 8 6 5 5 5 5 6 7 12 9 11
Wind_Direction
57 84 169 191 171 158 145 136 161 237 231 148 197 229 205 180 186 195 193 195 203 214 204 189 184 180 173 178 183 185 185 183 164 154 161 164 192 203 211 207 206 202 186 181
56 235 208 152 139 125 132 130 159 314 342 151 194 264 227 196 204 201 197 200 204 205 196 191 184 183 183 188 187 190 194 186 180 178 166 164 161 183 197 208 206 198 187 188
163 222 170 145 142 142 161 170 179 175 39 46 90 343 277 229 215 217 212 204 203 203 201 195 190 192 188 192 192 195 196 190 187 177 145 121 96 74 121 200 215 215 194 193
200 230 156 148 173 151 213 208 171 150 108 337 91 265 279 246 241 229 224 212 210 207 196 192 192 194 198 199 194 193 187 187 186 174 174 175 183 200 212 201 207 225 205 200
216 189 163 182 198 164 192 146 125 114 120 70 33 142 283 291 248 244 229 219 212 202 194 196 198 198 199 193 187 187 182 187 185 182 185 185 199 206 200 187 207 231 232 218
221 224 190 194 182 164 138 77 59 52 73 67 234 164 272 232 223 239 230 216 208 202 198 198 194 187 183 183 180 179 181 191 185 183 186 192 198 197 195 206 215 231 236 233
250 254 226 168 118 102 110 96 54 23 31 244 254 191 249 246 234 231 233 219 204 195 193 190 181 184 183 182 185 182 181 191 189 189 194 199 200 194 203 208 212 218 224 232
168 246 219 186 168 160 163 138 151 172 196 256 286 230 254 259 262 254 236 212 190 189 191 189 184 184 184 181 179 183 188 192 189 193 199 195 193 193 204 205 205 213 221 230
168 235 267 209 171 136 135 161 152 125 140 116 274 285 301 295 312 309 233 180 188 187 184 182 174 173 174 173 178 183 186 189 188 191 188 184 186 187 191 196 199 212 225 233
154 199 268 213 98 48 139 143 110 117 137 191 281 276 259 279 279 290 247 197 193 177 168 160 160 168 170 171 174 173 176 185 184 177 181 181 182 188 186 185 191 199 215 229
139 154 303 108 167 164 115 102 107 113 143 149 197 262 231 229 231 229 236 206 183 164 153 151 152 154 150 149 158 166 174 172 173 176 169 167 174 170 169 178 190 198 196 197
146 123 215 256 256 177 148 156 145 145 179 159 159 259 272 232 233 210 200 171 155 144 136 135 137 137 139 149 159 167 172 173 171 163 158 161 158 153 161 169 173 164 167 184
142 121 96 357 355 92 122 139 140 122 117 145 158 255 302 336 140 149 147 142 134 123 118 117 127 136 139 143 149 155 160 161 149 139 136 134 138 145 149 147 140 140 149 143
122 121 157 183 205 178 152 150 145 125 140 177 206 231 272 235 192 173 151 134 122 120 125 128 128 126 123 123 125 129 134 136 135 134 137 139 142 140 131 124 120 123 129 124
121 146 183 207 207 165 159 168 168 167 172 173 211 214 231 217 199 177 149 134 125 125 130 132 130 125 118 112 107 118 116 116 126 126 128 132 123 115 111 107 102 101 106 105
107 142 153 192 203 171 154 173 174 178 173 184 177 235 238 170 139 148 151 146 143 145 141 130 126 123 123 124 128 125 116 117 118 119 119 112 105 102 101 94 89 91 88 85
122 123 125 200 230 106 236 217 177 173 182 168 189 219 175 158 173 174 164 157 156 156 141 133 128 124 123 123 125 122 115 111 111 113 112 108 107 102 94 93 88 89 87 84
133 117 121 130 110 181 240 252 163 153 196 205 207 198 175 168 143 126 146 153 154 146 134 131 126 118 111 106 105 104 103 104 105 103 100 101 104 101 94 89 85 85 86 84
137 128 114 118 138 240 279 164 146 141 258 212 179 149 127 118 92 72 130 145 148 137 130 127 124 116 109 108 111 108 103 101 102 104 104 104 106 102 94 88 83 81 84 80
62 91 109 118 132 202 232 263 254 118 278 249 164 154 150 136 141 199 158 133 124 115 113 114 108 105 106 109 113 107 105 102 102 104 102 97 97 98 96 91 84 81 85 86
65 60 95 123 146 246 259 293 132 154 227 220 168 162 161 174 175 140 127 119 117 111 110 109 107 105 108 114 112 107 105 103 104 103 98 91 90 94 94 89 83 87 90 87
135 123 132 123 136 241 306 16 164 210 252 157 150 148 136 121 112 115 116 116 115 111 108 109 107 99 99 108 113 110 108 109 105 101 96 91 88 90 90 89 82 81 88 87
144 168 168 168 195 245 294 265 278 200 162 151 139 130 131 127 125 121 116 114 112 111 110 108 110 108 96 95 110 114 114 114 110 103 98 95 89 83 85 89 89 81 82 88
8 88 111 109 292 303 322 339 13 70 118 104 125 129 128 127 128 125 122 118 115 113 115 115 114 112 107 98 100 113 119 119 113 109 103 98 94 88 80 74 73 79 80 91
227 117 100 96 284 347 360 20 57 73 86 94 100 112 125 126 127 127 124 124 123 120 118 118 120 122 119 110 103 106 114 116 111 107 103 98 95 96 86 73 60 67 58 83
227 172 156 199 215 178 235 287 92 97 99 106 106 100 105 121 129 127 123 122 123 123 121 119 119 120 118 113 107 103 112 119 118 114 108 105 105 101 98 94 78 60 69 69